Flag for Czech Republic Weather past 2 weeks in Ostrava, Czech Republic

Now
24 °F

Passing clouds.


Feels Like: 15 °F
Forecast: 23 / 30 °F
Wind: 8 mph from Southwest

Location: Ostrava / Mosnov

Current Time: Feb 1, 2015 at 5:31:47 AM

Latest Report: Feb 1, 2015 at 4:00 AM


Visibility: 13 mi

Pressure: 29.26 "Hg

Humidity: 84%

Dew point: 20 °F

Location of OstravaLocation

Historic Weather in Ostrava — Graph

°F

Ostrava temperature yesterday

Maximum temperature yesterday: 35 °F (at 8:00 PM)
Minimum temperature yesterday: 26 °F (at 6:00 AM)
Average temperature yesterday: 31 °F

Past Weeks' High & Low Weather Summary

 TemperatureHumidityPressure
High51 °F (Jan 17, 10:00 AM)98% (Jan 18, 8:00 AM)30.34 "Hg (Jan 18, 8:00 AM)
Low14 °F (Jan 26, 11:00 PM)57% (Jan 17, 10:00 AM)28.82 "Hg (Jan 30, 3:00 PM)
Average34 °F86%29.86 "Hg
* Reported Jan 17 3:00 AM — Feb 1 3:00 AM, Ostrava, Weather by CustomWeather, © 2014

Note: Actual official high and low records may vary slightly from our data, if they occured in-between our weather recording intervals... More about our weather records

Advertising

Ostrava weather history for previous 24 hours

 ConditionsComfort  
Time TempWeatherWind HumidityBarometerVisibility
3:00 AM
Feb 1
25 °FPassing clouds.6 mph87%29.26 "Hg12 mi
2:00 AM27 °FPassing clouds.5 mph87%29.26 "Hg12 mi
1:00 AM26 °FPassing clouds.3 mph78%29.23 "Hg12 mi
12:00 AM28 °FPassing clouds.N/A85%29.23 "Hg12 mi
11:00 PM
Jan 31
33 °FPassing clouds.6 mph75%29.21 "Hg12 mi
10:00 PM35 °FOvercast.8 mph74%29.21 "Hg16 mi
9:00 PM34 °FOvercast.7 mph78%29.21 "Hg16 mi
8:00 PM35 °FOvercast.8 mph75%29.18 "Hg16 mi
7:00 PM33 °FOvercast.8 mph81%29.18 "Hg12 mi
6:00 PM32 °FLight snow. Overcast.8 mph82%29.15 "Hg4 mi
5:00 PM32 °FLight snow. Overcast.5 mph76%29.15 "Hg4 mi
4:00 PM33 °FOvercast.6 mph65%29.12 "Hg12 mi
3:00 PM33 °FPartly sunny.5 mph62%29.09 "Hg16 mi
2:00 PM32 °FScattered clouds.8 mph62%29.09 "Hg16 mi
1:00 PM31 °FScattered clouds.9 mph66%29.09 "Hg16 mi
12:00 PM29 °FScattered clouds.7 mph67%29.09 "Hg16 mi
11:00 AM29 °FScattered clouds.7 mph67%29.06 "Hg16 mi
10:00 AM28 °FPartly sunny.9 mph75%29.06 "Hg16 mi
9:00 AM28 °FLight snow. Partly sunny.8 mph80%29.03 "Hg12 mi
8:00 AM27 °FPartly sunny.6 mph82%29.00 "Hg16 mi
7:00 AM28 °FOvercast.8 mph83%28.94 "Hg16 mi
6:00 AM26 °FOvercast.7 mph84%28.94 "Hg16 mi
5:00 AM28 °FOvercast.5 mph85%28.91 "Hg12 mi
Weather by CustomWeather, © 2014

See weather overviewHow to use our weather pages